Location: Observatoire
(46.1952°N, 5.3391°E)
Time: 16:45:40
(UTC+01:00)

ARIANE 6 FM1 Upper Stage - Visible Passes

Search period start: 22 January 2026 00:00
Search period end: 01 February 2026 00:00
Orbit: 522 x 610 km, 62.0° (Epoch: 22 January)

Date Brightness Start Highest point End Pass type
(mag) Time Alt. Az. Time Alt. Az. Time Alt. Az.
22 Jan 4.1 18:34:26 10° SSE 18:37:20 19° ESE 18:38:36 17° E visible
22 Jan 4.1 20:12:03 10° WSW 20:14:39 35° WSW 20:14:39 35° WSW visible
23 Jan 3.7 18:33:53 10° S 18:37:21 27° ESE 18:39:22 18° ENE visible
23 Jan 4.1 20:12:25 10° WSW 20:15:25 35° WNW 20:15:25 35° WNW visible
24 Jan 3.2 18:33:35 10° SSW 18:37:24 39° SE 18:40:03 17° ENE visible
24 Jan 4.3 20:12:54 10° W 20:16:05 29° NW 20:16:05 29° NW visible
25 Jan 2.7 18:33:27 10° SSW 18:37:27 58° SE 18:40:38 15° NE visible
25 Jan 4.6 20:13:30 10° W 20:16:40 23° NW 20:16:40 23° NW visible
26 Jan 2.5 18:33:28 10° SW 18:37:33 85° SE 18:41:08 13° NE visible
26 Jan 4.8 20:14:10 10° WNW 20:17:04 19° NNW 20:17:10 19° NNW visible
27 Jan 2.9 18:33:37 10° SW 18:37:40 67° NW 18:41:33 11° NE visible
27 Jan 5.0 20:14:57 10° WNW 20:17:24 15° NNW 20:17:35 15° NNW visible
28 Jan 3.4 18:33:53 10° WSW 18:37:50 47° NW 18:41:42 10° NNE visible
28 Jan 5.2 20:15:51 10° NW 20:17:44 13° NNW 20:17:56 13° NNW visible
29 Jan 3.9 18:34:15 10° WSW 18:38:00 35° NW 18:41:42 10° NNE visible
29 Jan 5.3 20:16:55 10° NW 20:18:06 11° NNW 20:18:15 11° NNW visible
30 Jan 4.3 18:34:43 10° W 18:38:12 27° NW 18:41:38 10° NNE visible
31 Jan 4.6 18:35:18 10° W 18:38:26 21° NNW 18:41:32 10° NNE visible
